Погода в Вохтоме

Россия / Костромская область     58°42′01″N   43°26′22″E
темп.,
°C
ветер,
м/с
пор.,
м/с
влажн.,
%
обл.,
%
осадки,
мм/ч
давл.,
гПа
погр.,
м
17 июня, чт
чт1700:00+11зсз2468100 0.0 101683
03:00+9зсз27765 0.0 1017132
06:00+13зсз38610 0.0 1017289
09:00+17сз58452 0.0 10181514
12:00+20сз6103872 0.0 10192452
15:00+18ссз41149100 0.0 10212224
18:00+18ссз495094 0.0 10222137
21:00+12сз26740 0.0 1024116
18 июня, пт
пт1800:00+10зсз11750 0.0 102510
03:00+9з227645 0.0 102617
06:00+13зюз126516 0.0 1027171
09:00+19зюз354922 0.0 1026985
12:00+23зюз354025 0.0 10251739
15:00+24зюз4639100 0.0 10231866
18:00+23зюз3752100 0.0 1022927
21:00+17юз37827 0.0 1023137
19 июня, сб
сб1900:00+16юз312875 0.0 1023270
03:00+16зюз41379100 0.0 1022322
06:00+18зюз310776 0.0 1022305
09:00+24з59531 0.0 1022965
12:00+27з58380 0.0 10211990
15:00+28з68360 0.0 10202031
18:00+26з48490 0.0 10201408
21:00+21зюз312740 0.0 1020330
20 июня, вс
вс2000:00+18зюз312801 0.0 1021291
03:00+16з28934 0.0 1022164
06:00+20з36755 0.0 1022205
09:00+26з35515 0.0 1021744
12:00+29з46391 0.0 10212109
15:00+30з46385 0.0 10202388
18:00+28зюз465010 0.0 1019931
21:00+22зюз3117616 0.0 1020297
21 июня, пн
пн2100:00+18зюз29860 0.0 1020189
03:00+17зюз27870 0.0 1020124
06:00+20зюз37720 0.0 1020230
09:00+26зюз34530 0.0 1020669
12:00+29з45390 0.0 10192137
15:00+30сз453417 0.0 10182781
18:00+29з134872 0.0 1018172
21:00+23зсз27670 0.0 1019149